TimeMST,TemperatureF,Dew PointF,Humidity,Sea Level PressureIn,VisibilityMPH,Wind Direction,Wind SpeedMPH,Gust SpeedMPH,PrecipitationIn,Events,Conditions,WindDirDegrees,DateUTC
12:52 AM,17.1,12.9,84,30.25,10.0,West,3.5,-,N/A,,Clear,280,2013-01-09 07:52:00
1:52 AM,14.0,10.9,88,30.25,10.0,Calm,Calm,-,N/A,,Clear,0,2013-01-09 08:52:00
2:52 AM,12.9,9.0,84,30.25,10.0,Calm,Calm,-,N/A,,Clear,0,2013-01-09 09:52:00
3:52 AM,12.0,9.0,88,30.24,10.0,Calm,Calm,-,N/A,,Clear,0,2013-01-09 10:52:00
4:52 AM,12.9,8.1,81,30.24,10.0,Calm,Calm,-,N/A,,Clear,0,2013-01-09 11:52:00
6:52 AM,21.0,16.0,81,30.25,10.0,WNW,3.5,-,N/A,,Clear,290,2013-01-09 13:52:00
7:52 AM,19.0,15.1,85,30.28,10.0,SSW,5.8,-,N/A,,Clear,210,2013-01-09 14:52:00
8:52 AM,26.1,21.0,81,30.30,10.0,SW,11.5,-,N/A,,Clear,220,2013-01-09 15:52:00
10:52 AM,41.0,28.9,62,30.24,10.0,SSW,8.1,-,N/A,,Clear,210,2013-01-09 17:52:00
11:52 AM,43.0,30.0,60,30.23,10.0,South,13.8,-,N/A,,Clear,190,2013-01-09 18:52:00
12:52 PM,46.0,30.9,56,30.19,10.0,South,13.8,-,N/A,,Clear,180,2013-01-09 19:52:00
1:52 PM,48.9,30.9,50,30.17,10.0,SSW,8.1,-,N/A,,Clear,200,2013-01-09 20:52:00
2:52 PM,48.9,30.9,50,30.17,10.0,South,9.2,-,N/A,,Clear,190,2013-01-09 21:52:00
3:52 PM,46.9,30.0,52,30.15,10.0,South,10.4,-,N/A,,Clear,180,2013-01-09 22:52:00
4:52 PM,41.0,28.9,62,30.14,10.0,South,9.2,-,N/A,,Clear,190,2013-01-09 23:52:00
5:52 PM,41.0,28.9,62,30.11,10.0,SW,6.9,-,N/A,,Clear,220,2013-01-10 00:52:00
6:52 PM,43.0,28.9,58,30.08,10.0,South,20.7,28.8,N/A,,Clear,190,2013-01-10 01:52:00
7:52 PM,43.0,28.9,58,30.06,10.0,South,19.6,26.5,N/A,,Clear,190,2013-01-10 02:52:00
8:52 PM,43.0,27.0,53,30.03,10.0,South,26.5,36.8,N/A,,Clear,180,2013-01-10 03:52:00
9:52 PM,42.1,26.1,53,29.99,10.0,South,29.9,42.6,N/A,,Clear,180,2013-01-10 04:52:00
10:52 PM,41.0,25.0,53,29.97,10.0,South,25.3,38.0,N/A,,Clear,190,2013-01-10 05:52:00
11:52 PM,39.9,24.1,53,29.94,10.0,South,29.9,42.6,N/A,,Clear,180,2013-01-10 06:52:00